Date,TemperatureHighF,TemperatureAvgF,TemperatureLowF,DewpointHighF,DewpointAvgF,DewpointLowF,HumidityHigh,HumidityAvg,HumidityLow,PressureMaxIn,PressureMinIn,WindSpeedMaxMPH,WindSpeedAvgMPH,GustSpeedMaxMPH,PrecipitationSumIn
2014-1-1,64.0,60.8,58.3,63.2,58.7,48.9,99,93,62,29.87,29.66,3,2,11,0.19
2014-1-2,68.9,64.0,61.7,68.5,63.7,61.4,99,99,99,29.66,29.55,2,1,9,0.00
2014-1-3,58.6,50.0,42.3,36.4,29.9,23.9,77,48,30,29.88,29.76,5,3,12,0.37
2014-1-4,69.6,57.2,42.8,58.9,51.0,35.9,92,80,60,29.85,29.67,3,1,12,0.00
2014-1-5,88.3,68.4,56.8,69.3,62.6,56.4,99,85,51,29.68,29.58,4,1,10,0.00
2014-1-6,76.5,59.0,46.2,71.1,52.6,28.3,99,81,48,29.94,29.55,7,3,25,0.00
2014-1-7,53.1,42.7,33.3,30.6,17.6,-3.3,58,39,10,30.02,29.89,6,3,19,0.00
2014-1-8,63.0,46.5,36.0,50.1,36.8,21.7,80,69,55,29.99,29.85,4,3,13,0.00
2014-1-9,73.4,67.3,55.0,70.4,66.2,52.6,99,96,87,29.88,29.76,4,2,12,0.08
2014-1-10,94.5,74.5,66.4,72.9,68.7,66.1,99,85,48,29.81,29.66,3,1,10,0.00
2014-1-11,84.6,70.9,61.9,77.6,69.8,61.6,99,96,78,29.68,29.55,9,2,18,0.11
2014-1-12,83.1,62.2,49.5,64.3,47.8,28.0,99,68,16,29.82,29.63,4,1,13,0.01
2014-1-13,84.4,62.2,47.5,72.0,59.4,45.8,99,91,56,29.77,29.57,6,1,15,0.00
2014-1-14,72.5,68.2,63.1,72.1,66.6,58.3,99,95,73,29.63,29.53,5,2,15,0.25
2014-1-15,70.7,55.4,45.0,55.3,50.6,44.7,99,86,46,29.68,29.57,4,1,11,0.01
2014-1-16,60.6,49.7,35.8,50.6,33.9,26.1,96,58,29,29.77,29.59,5,2,17,0.05
2014-1-17,75.6,51.9,35.1,56.8,43.4,34.2,99,79,33,29.82,29.71,3,0,10,0.00
2014-1-18,61.7,50.5,35.4,54.1,34.8,22.8,99,61,24,29.89,29.70,4,2,15,0.00
2014-1-19,70.0,50.6,34.3,58.6,46.1,32.6,99,86,57,29.83,29.72,5,1,12,0.00
2014-1-20,79.3,57.4,43.2,57.7,51.2,42.9,99,84,39,29.75,29.65,4,1,11,0.00
2014-1-21,77.5,62.3,52.2,63.6,56.5,40.3,99,83,53,29.65,29.45,7,2,21,0.01
2014-1-22,60.6,49.5,36.9,41.3,35.0,30.3,92,59,34,29.79,29.55,5,2,16,0.00
2014-1-23,74.3,50.2,35.6,40.1,31.2,12.4,99,60,10,29.95,29.75,4,1,12,0.00
2014-1-24,69.1,52.1,42.6,37.2,25.6,15.2,66,39,13,30.06,29.88,5,2,15,0.00
2014-1-25,69.1,51.9,46.6,47.4,41.7,36.2,82,69,44,29.89,29.75,2,1,8,0.00
2014-1-26,64.4,62.0,61.3,61.8,61.4,60.6,99,98,92,29.94,29.91,0,0,2,0.18
2014-1-27,76.8,65.8,60.4,70.3,63.9,60.2,99,94,65,29.96,29.88,3,1,8,0.26
2014-1-28,82.6,66.3,55.0,69.0,62.4,54.6,99,89,57,29.99,29.91,6,1,12,0.12
2014-1-29,65.7,52.1,44.4,64.7,51.8,44.2,99,99,94,30.12,29.91,5,2,14,0.39
2014-1-30,51.4,48.7,44.1,51.2,48.5,43.3,99,99,99,30.10,29.82,3,2,10,0.19
2014-1-31,60.1,54.7,48.7,59.6,54.4,48.5,99,99,99,29.86,29.77,3,1,10,0.12